Location: Newark
(40.3500°N, 15.2333°E)
Time: 04:59:04
(UTC+00:00)

deb Explorer IX - Visible Passes

Search period start: 25 January 2020 00:00
Search period end: 04 February 2020 00:00
Orbit: 548 x 1101 km, 38.8° (Epoch: 24 January)

Date Brightness Start Highest point End Pass type
(mag) Time Alt. Az. Time Alt. Az. Time Alt. Az.
25 Jan ? 19:26:18 10° SSW 19:27:05 13° SSW 19:27:05 13° SSW visible
26 Jan ? 19:03:56 10° SSW 19:06:21 21° SSW 19:06:21 21° SSW visible
27 Jan ? 18:41:37 10° SSW 18:45:33 28° S 18:45:33 28° S visible
28 Jan ? 18:19:17 10° SSW 18:24:43 31° SSE 18:24:43 31° SSE visible
28 Jan ? 20:04:56 10° WSW 20:06:05 16° WSW 20:06:05 16° WSW visible
29 Jan ? 17:57:00 10° SSW 18:02:21 31° SSE 18:03:48 28° SE visible
29 Jan ? 19:42:36 10° WSW 19:45:10 26° WSW 19:45:10 26° WSW visible
30 Jan ? 17:34:42 10° SSW 17:39:55 31° SSE 17:42:51 22° ESE visible
30 Jan ? 19:20:16 10° WSW 19:24:12 40° SW 19:24:12 40° SW visible
31 Jan ? 17:12:24 10° SSW 17:17:29 30° SSE 17:21:50 15° E visible
31 Jan ? 18:57:58 10° WSW 19:03:11 58° SSW 19:03:11 58° SSW visible
01 Feb ? 16:50:09 10° SSW 16:55:04 30° SSE 17:00:39 10° E visible
01 Feb ? 18:35:39 10° WSW 18:41:45 67° SSE 18:42:07 65° SE visible
01 Feb ? 20:22:27 10° W 20:23:28 15° W 20:23:28 15° W visible
02 Feb ? 18:13:21 10° WSW 18:19:17 67° SSE 18:21:01 48° ESE visible
02 Feb ? 20:00:06 10° W 20:02:21 24° W 20:02:21 24° W visible
03 Feb ? 17:51:04 10° WSW 17:56:50 67° SSE 17:59:52 33° E visible
03 Feb ? 19:37:45 10° W 19:41:13 36° W 19:41:13 36° W visible
